Regional Weather Roundup
Issued by NWS

Home | Current Version | Previous Version | Text Only | Print | Product List | Glossary Off
Versions: 1 2 3 4 5 6 7 8 9 10 11 12 13 14 15 16 17 18 19 20 21 22 23 24 25 26 27 28 29 30 31 32 33 34 35 36 37 38 39 40 41 42 43 44 45 46 47 48 49 50

000
ASUS43 KDMX 230006
RWRIA

WEATHER ROUNDUP FOR IOWA
NATIONAL WEATHER SERVICE DES MOINES IA
600 PM CST SUN JAN 22 2017

NOTE: "FAIR" INDICATES FEW OR NO CLOUDS BELOW 12,000 FEET WITH NO
SIGNIFICANT WEATHER AND/OR OBSTRUCTIONS TO VISIBILITY.

* - THESE STATIONS ARE NOT NWS STATIONS...THUS NOT UNDER NWS
QUALITY CONTROL.  THEY ALSO DO NOT REPORT WEATHER SUCH
AS PRECIPITATION OR FOG.

IAZ001>003-012>014-020>022-031>034-043>046-230100-
   NORTHWEST IOWA

CITY           SKY/WX    TMP DP  RH WIND       PRES   REMARKS
CARROLL *      CLOUDY    36  36 100 NW13      29.80R WCI  27
CHEROKEE *     CLOUDY    33  32  96 W9        29.83R WCI  25
DENISON *      CLOUDY    34  34 100 NW10      29.81R WCI  26
LE MARS *      CLOUDY    30  28  93 NW16G24   29.86R WCI  19
ORANGE CITY *  CLOUDY    30  28  93 NW16      29.83R FOG     WCI  19
SHELDON *      CLOUDY    30  30 100 NW13G22   29.81R FOG     WCI  20
SIOUX CITY     MOCLDY    34  31  88 NW3       29.84R
6HR MIN TEMP:  33; 6HR MAX TEMP:  38;

SPENCER          N/A    N/A N/A N/A MISG      29.81R
STORM LAKE *   CLOUDY    32  32 100 NW13      29.80R FOG     WCI  22
$$

IAZ055>058-069>071-079>083-090>094-230100-
   SOUTHWEST IOWA

CITY           SKY/WX    TMP DP  RH WIND       PRES   REMARKS
ATLANTIC *     CLOUDY    36  36 100 NW6       29.81S WCI  31
AUDUBON *      CLOUDY    36  34  93 NW7       29.81R WCI  30
CLARINDA *     CLOUDY    37  36  93 N7        29.84R WCI  32
COUNCIL BLFS * PTCLDY    34  34 100 NW8       29.83R WCI  27
CRESTON *      CLOUDY    36  36 100 NW14      29.80R WCI  27
HARLAN  *      CLOUDY    34  34 100 NW6       29.85S WCI  29
LAMONI         CLOUDY    37  35  92 NW13      29.77R WCI  29
6HR MIN TEMP:  36; 6HR MAX TEMP:  38;

RED OAK *      CLOUDY    36  34  93 N6        29.83R WCI  31
SHENANDOAH *   CLOUDY    37  34  87 VRB5      29.84S WCI  34
$$

IAZ047>049-059>061-072>074-084-230100-
   CENTRAL IOWA

CITY           SKY/WX    TMP DP  RH WIND       PRES   REMARKS
AMES           CLOUDY    37  37 100 NW10      29.78R WCI  30
6HR MIN TEMP:  36; 6HR MAX TEMP:  38;

ANKENY *       CLOUDY    37  36  93 NW9       29.79R WCI  31
BOONE *        CLOUDY    37  37 100 NW13      29.77R FOG     WCI  29
CHARITON *     CLOUDY    36  36 100 NW13G18   29.76R WCI  27
DES MOINES     CLOUDY    38  35  89 NW12      29.78R WCI  30
6HR MIN TEMP:  37; 6HR MAX TEMP:  39;

GRINNELL*      CLOUDY    37  35  95 NW8       29.75R FOG     WCI  30
KNOXVILLE *    CLOUDY    37  36  93 NW9       29.75R WCI  31
MARSHALLTOWN   CLOUDY    37  36  96 NW10      29.75R WCI  30
6HR MIN TEMP:  36; 6HR MAX TEMP:  39;

NEWTON *       CLOUDY    37  36  93 NW12      29.75R WCI  30
PELLA *        CLOUDY    37  36  96 NW8       29.77R FOG     WCI  30
PERRY *        CLOUDY    38  36  94 NW9       29.79S WCI  31
$$

IAZ004>006-015-016-023>025-035-036-230100-
   NORTH CENTRAL IOWA

CITY           SKY/WX    TMP DP  RH WIND       PRES   REMARKS
ALGONA *       CLOUDY    37  37 100 NW7       29.78R WCI  32
CLARION *      CLOUDY    36  36 100 NW6       29.78R WCI  31
ESTHERVILLE    CLOUDY    34  34 100 NW10      29.78R WCI  26
6HR MIN TEMP:  34; 6HR MAX TEMP:  37;

FORT DODGE *   CLOUDY    37  34  87 CALM      29.79S
MASON CITY     CLOUDY    34  33  96 NW8       29.77S FOG     WCI  27
6HR MIN TEMP:  34; 6HR MAX TEMP:  35;

FOREST CITY *  FOG       34  34 100 NW5       29.77R VSB 3/4 WCI  30
WEBSTER CITY * CLOUDY    37 N/A N/A NW12      29.77R HAZE    WCI  30
IOWA FALLS *   CLOUDY    37  35  94 NW8       29.78R WCI  30
$$

IAZ007>011-017>019-026>030-037>042-050>054-066-230100-
   NORTHEAST IOWA

CITY           SKY/WX    TMP DP  RH WIND       PRES   REMARKS
CEDAR RAPIDS   CLOUDY    37  35  92 NW12      29.72R WCI  29
6HR MIN TEMP:  34; 6HR MAX TEMP:  37;

CHARLES CITY * CLOUDY    36  36 100 NW9       29.76R WCI  29
CLINTON *      CLEAR     35  33  92 N10       29.69R WCI  27
DECORAH *      CLOUDY    36  36 100 NW6       29.72R FOG     WCI  31
DUBUQUE        CLOUDY    36  35  96 N9        29.70R WCI  29
6HR MIN TEMP:  36; 6HR MAX TEMP:  41;

MONTICELLO *   CLOUDY    37  36  93 NW9       29.71R WCI  31
OELWEIN *      CLOUDY    34  34 100 NW12      29.74R FOG     WCI  25
WATERLOO       CLOUDY    35  33  92 NW13      29.75R WCI  26
6HR MIN TEMP:  35; 6HR MAX TEMP:  38;

$$

IAZ064-065-067-068-078-230100-
   EAST CENTRAL IOWA

CITY           SKY/WX    TMP DP  RH WIND       PRES   REMARKS
DAVENPORT      CLOUDY    36  34  92 NW7       29.69R WCI  30
6HR MIN TEMP:  34; 6HR MAX TEMP:  42;

IOWA CITY      CLOUDY    38  34  85 NW8       29.73S WCI  32
6HR MIN TEMP:  37; 6HR MAX TEMP:  38;

MUSCATINE *    CLOUDY    37  34  87 NW9       29.72R WCI  31
QUAD CITIES    CLOUDY    40  35  83 NW7       29.68R
6HR MIN TEMP:  40; 6HR MAX TEMP:  43;

$$

IAZ062-063-075>077-085>089-095>099-230100-
   SOUTHEAST IOWA

CITY           SKY/WX    TMP DP  RH WIND       PRES   REMARKS
BURLINGTON     CLOUDY    37  35  92 NW10      29.70R WCI  30
6HR MIN TEMP:  36; 6HR MAX TEMP:  39;

FAIRFIELD *    CLOUDY    36  34  93 NW8       29.72R WCI  29
FORT MADISON * CLOUDY    36  36 100 NW13      29.72R WCI  27
KEOKUK *       CLOUDY    37 N/A N/A NW9G24    29.71R WCI  31
OSKALOOSA *    CLOUDY    37  35  94 NW13      29.74R FOG     WCI  28
CENTERVILLE *  CLOUDY    36  36 100 NW13      29.76R WCI  27
OTTUMWA        CLOUDY    38  35  89 NW13      29.73S WCI  30
6HR MIN TEMP:  37; 6HR MAX TEMP:  39;

WASHINGTON *   CLOUDY    34  32  93 NW6       29.73R WCI  29
$$

ABBREVIATIONS USED IN REMARKS
   TC - TEMPERATURES IN CELSIUS
  WCI - WIND CHILL INDEX
   HX - HEAT INDEX
  VSB - VISIBILITY
$$





USA.gov is the U.S. government's official web portal to all federal, state and local government web resources and services.